Change the Weather History Date:

Friday, January 10, 2014

  Actual Average Record
Temperature  
Mean Temperature 53 °F 49 °F  
Max Temperature 68 °F 60 °F 84 °F (1949)
Min Temperature 37 °F 37 °F 11 °F (1962)
Degree Days  
Heating Degree Days 12 17  
Month to date heating degree days 249 163  
Since 1 July heating degree days 1070 948  
Cooling Degree Days 0 0  
Month to date cooling degree days 0 0  
Year to date cooling degree days 0 0  
Growing Degree Days 2 (Base 50)    
Moisture  
Dew Point 51 °F    
Average Humidity 89    
Maximum Humidity 100    
Minimum Humidity 78    
Precipitation  
Precipitation 0.02 in 0.17 in 1.61 in (2009)
Month to date precipitation 0.42 1.82  
Year to date precipitation 0.42 1.82  
Sea Level Pressure  
Sea Level Pressure 30.07 in    
Wind  
Wind Speed 5 mph (SE)    
Max Wind Speed 17 mph    
Max Gust Speed 23 mph    
Visibility 4 miles    
Events Fog , Rain    
T = Trace of Precipitation, MM = Missing Value Source: NWS Daily Summary

Daily Weather History Graph

Daily Weather History Graph

Search for Another Location

Airport or City:

Trip Planner

Search our weather history database for the weather conditions in past years. The results will help you decide how hot, cold, wet, or windy it might be!

Date:

Astronomy

Jan. 10, 2014 Rise Set
Actual Time 6:56 AM CST 5:12 PM CST
Civil Twilight 6:30 AM CST 5:39 PM CST
Nautical Twilight 6:00 AM CST 6:09 PM CST
Astronomical Twilight 5:31 AM CST 6:38 PM CST
Moon 1:11 PM CST (1/10) 2:10 AM CST (1/10)
Length of Visible Light 11h 08m
Length of Day
10h 15m
Waxing Gibbous, 75% of the Moon is Illuminated
Jan 10
Waxing Gibbous
Jan 15
Full
Jan 23
Last Quarter
Jan 30
New
Feb 6
First Quarter

Hourly Weather History & Observations

Time (CST) Temp. Windchill Dew Point Humidity Pressure Visibility Wind Dir Wind Speed Gust Speed Precip Events Conditions
12:53 AM 37.0 °F - 34.0 °F 89% 30.24 in 10.0 mi Calm Calm - N/A   Clear
1:00 AM 37.0 °F 34.5 °F 34.0 °F 89% 30.23 in 10.0 mi ESE 3.5 mph - N/A   Scattered Clouds
1:03 AM 37.9 °F 35.5 °F 35.1 °F 89% 30.23 in 10.0 mi ESE 3.5 mph - N/A   Mostly Cloudy
1:16 AM 41.0 °F 38.0 °F 39.0 °F 93% 30.23 in 1.8 mi SE 4.6 mph - N/A   Mostly Cloudy
1:26 AM 41.0 °F 38.0 °F 39.9 °F 96% 30.23 in 0.5 mi ESE 4.6 mph - N/A Fog Fog
1:51 AM 42.8 °F 40.1 °F 41.0 °F 93% 30.23 in 0.2 mi SE 4.6 mph - N/A Fog Fog
1:53 AM 42.1 °F 39.2 °F 41.0 °F 96% 30.22 in 0.2 mi ESE 4.6 mph - N/A Fog Fog
2:53 AM 42.1 °F 40.2 °F 41.0 °F 96% 30.21 in 0.2 mi SSE 3.5 mph - N/A Fog Fog
3:53 AM 43.0 °F 41.3 °F 42.1 °F 97% 30.20 in 0.2 mi SE 3.5 mph - N/A Fog Fog
4:53 AM 44.1 °F - 43.0 °F 96% 30.17 in 0.2 mi Calm Calm - N/A Fog Fog
5:53 AM 45.0 °F - 44.1 °F 97% 30.17 in 0.2 mi Calm Calm - N/A Fog Fog
6:53 AM 45.0 °F - 44.1 °F 97% 30.17 in 0.2 mi Calm Calm - N/A Fog Fog
7:02 AM 45.0 °F - 44.1 °F 97% 30.17 in 0.5 mi Calm Calm - N/A Fog Fog
7:15 AM 45.0 °F - 44.1 °F 97% 30.17 in 0.2 mi Calm Calm - N/A Fog Fog
7:53 AM 46.0 °F - 45.0 °F 96% 30.17 in 0.2 mi Calm Calm - N/A Fog Fog
8:53 AM 48.9 °F - 46.9 °F 93% 30.17 in 0.2 mi ESE 3.5 mph - N/A Fog Fog
9:53 AM 51.1 °F - 48.9 °F 92% 30.17 in 0.2 mi SE 5.8 mph - N/A Fog Fog
10:12 AM 51.1 °F - 50.0 °F 96% 30.17 in 0.5 mi SE 4.6 mph - N/A Fog Fog
10:23 AM 51.1 °F - 50.0 °F 96% 30.16 in 1.5 mi ESE 5.8 mph - N/A   Overcast
10:53 AM 52.0 °F - 51.1 °F 97% 30.14 in 0.8 mi Calm Calm - N/A   Overcast
11:04 AM 52.0 °F - 51.1 °F 97% 30.13 in 1.2 mi East 3.5 mph - N/A   Overcast
11:26 AM 53.1 °F - 52.0 °F 96% 30.11 in 2.5 mi ESE 5.8 mph - N/A   Overcast
11:33 AM 53.1 °F - 51.1 °F 93% 30.10 in 3.0 mi East 5.8 mph - N/A   Overcast
11:53 AM 54.0 °F - 52.0 °F 93% 30.09 in 7.0 mi ESE 5.8 mph - N/A   Overcast
12:53 PM 57.0 °F - 53.1 °F 87% 30.04 in 10.0 mi ESE 4.6 mph - N/A   Overcast
1:29 PM 60.1 °F - 54.0 °F 80% 30.01 in 10.0 mi ENE 5.8 mph - N/A   Overcast
1:53 PM 60.1 °F - 54.0 °F 80% 30.00 in 10.0 mi East 5.8 mph - N/A   Overcast
2:53 PM 60.1 °F - 55.0 °F 83% 29.99 in 8.0 mi ESE 6.9 mph - N/A   Overcast
3:53 PM 62.1 °F - 55.9 °F 80% 29.98 in 10.0 mi Calm Calm - N/A   Overcast
4:53 PM 59.0 °F - 57.0 °F 93% 29.97 in 3.0 mi SE 3.5 mph - 0.00 in Rain Light Rain
5:00 PM 59.0 °F - 57.0 °F 93% 29.97 in 2.0 mi ESE 3.5 mph - 0.00 in Rain Light Rain
5:03 PM 59.0 °F - 57.0 °F 93% 29.97 in 1.8 mi ESE 3.5 mph - 0.00 in Rain Light Rain
5:18 PM 59.0 °F - 57.0 °F 93% 29.96 in 2.0 mi Calm Calm - 0.01 in Rain Light Rain
5:53 PM 59.0 °F - 57.9 °F 96% 29.96 in 3.0 mi ESE 6.9 mph - 0.01 in   Overcast
6:19 PM 60.1 °F - 57.9 °F 93% 29.96 in 4.0 mi SE 6.9 mph - N/A   Overcast
6:53 PM 59.0 °F - 57.9 °F 96% 29.96 in 4.0 mi SSE 5.8 mph - N/A   Overcast
7:29 PM 60.1 °F - 59.0 °F 96% 29.95 in 1.8 mi SE 8.1 mph - 0.00 in Rain Light Rain
7:53 PM 61.0 °F - 60.1 °F 97% 29.94 in 1.2 mi SE 6.9 mph - 0.01 in   Overcast
8:09 PM 62.1 °F - 60.1 °F 93% 29.95 in 2.5 mi South 10.4 mph - N/A   Overcast
8:20 PM 62.1 °F - 61.0 °F 96% 29.93 in 3.0 mi SSE 10.4 mph - N/A   Overcast
8:53 PM 63.0 °F - 62.1 °F 97% 29.94 in 3.0 mi South 6.9 mph - 0.00 in   Overcast
9:53 PM 64.0 °F - 62.1 °F 93% 29.90 in 4.0 mi SSE 10.4 mph - N/A   Overcast
10:53 PM 64.9 °F - 64.0 °F 97% 29.88 in 8.0 mi South 10.4 mph 19.6 mph N/A   Overcast
11:31 PM 66.0 °F - 64.0 °F 93% 29.87 in 10.0 mi South 12.7 mph - 0.00 in   Overcast
11:53 PM 66.9 °F - 64.9 °F 93% 29.87 in 10.0 mi South 12.7 mph 20.7 mph 0.00 in   Overcast